GW5470 Weather Reports


time (UTC)temp
C
wind
direction
speed
KPH
gust
KPH
rain 1hr
cm
rain 24hr
cm
rain mn
cm
humidity
%
barometer
mb
20260904030134 24 207 0.0 0.0 0.00 0.00 0.00 99 1016.3
20260904025630 24 207 0.0 0.0 0.00 0.00 0.00 99 1016.3
20260904025125 24 207 0.0 0.0 0.00 0.00 0.00 99 1015.9
20260904024621 24 207 0.0 0.0 0.00 0.00 0.00 99 1016.1
20260904024116 24 207 0.0 0.0 0.00 0.00 0.00 99 1016.1
20260904023612 25 207 0.0 0.0 0.00 0.00 0.00 99 1016.5
20260904023108 25 207 0.0 0.0 0.00 0.00 0.00 99 1016.1
20260904022607 25 207 0.0 0.0 0.00 0.00 0.00 99 1016.4
20260904022104 24 207 0.0 0.0 0.00 0.00 0.00 99 1016.1
20260904021559 25 207 0.0 0.0 0.00 0.00 0.00 99 1016.3
20260904021054 25 207 0.0 0.0 0.00 0.00 0.00 99 1016.3
20260904020549 25 207 0.0 0.0 0.00 0.00 0.00 99 1016.3
20260904020044 25 207 0.0 0.0 0.00 0.00 0.00 99 1016.2
20260904015539 25 207 0.0 0.0 0.00 0.00 0.00 98 1016.1
20260904015038 25 207 0.0 0.0 0.00 0.00 0.00 98 1016.2
20260904014532 25 207 0.0 0.0 0.00 0.00 0.00 98 1016.3
20260904014027 25 207 0.0 0.0 0.00 0.00 0.00 98 1016.4
20260904013524 25 207 0.0 0.0 0.00 0.00 0.00 98 1016.4
20260904013020 25 207 0.0 0.0 0.00 0.00 0.00 98 1016.3
20260904012520 25 207 0.0 0.0 0.00 0.00 0.00 98 1016.1
20260904012014 25 207 0.0 0.0 0.00 0.00 0.00 98 1015.9
20260904011508 25 207 0.0 0.0 0.00 0.00 0.00 98 1015.9
20260904011004 25 207 0.0 0.0 0.00 0.00 0.00 97 1016.0
20260904010501 25 207 0.0 0.0 0.00 0.00 0.00 97 1015.9
20260904010001 25 207 0.0 0.0 0.00 0.00 0.00 97 1015.8
20260904005456 26 207 0.0 0.0 0.00 0.00 0.00 97 1015.8
20260904004950 26 207 0.0 0.0 0.00 0.00 0.00 97 1015.9
20260904004447 26 207 0.0 0.0 0.00 0.00 0.00 96 1016.0
20260904003942 26 207 0.0 0.0 0.00 0.00 0.00 96 1015.9
20260904003438 26 207 0.0 0.0 0.00 0.00 0.00 95 1015.7
20260904002933 26 207 0.0 0.0 0.00 0.00 0.00 95 1015.9
20260904002429 26 207 0.0 0.0 0.00 0.00 0.00 95 1015.7
20260904001928 26 207 0.0 0.0 0.00 0.00 0.00 94 1015.8
20260904001423 26 207 0.0 0.0 0.00 0.00 0.00 94 1015.8
20260904000918 27 207 0.0 0.0 0.00 0.00 0.00 93 1015.8
20260904000418 27 207 0.0 0.0 0.00 0.00 0.00 93 1015.7
20260903235912 27 207 0.0 0.0 0.00 0.00 0.00 92 1015.5
20260903235408 27 207 0.0 0.0 0.00 0.00 0.00 91 1015.6
20260903234908 27 207 0.0 0.0 0.00 0.00 0.00 91 1015.5
20260903234404 27 207 0.0 0.0 0.00 0.00 0.00 90 1015.6
20260903233859 27 207 0.0 0.0 0.00 0.00 0.00 89 1015.6
20260903233356 28 207 0.0 0.0 0.00 0.00 0.00 88 1015.4
20260903232854 28 208 0.0 0.0 0.00 0.00 0.00 87 1015.2
20260903232350 28 207 0.0 0.0 0.00 0.00 0.00 86 1015.3
20260903231850 28 207 0.0 0.0 0.00 0.00 0.00 86 1015.1
20260903231345 28 207 0.0 0.0 0.00 0.00 0.00 84 1015.1
20260903230840 28 207 0.0 0.0 0.00 0.00 0.00 84 1015.5
20260903230336 29 207 0.0 0.0 0.00 0.00 0.00 83 1015.2
20260903225832 29 207 0.0 0.0 0.00 0.00 0.00 83 1015.4
20260903225327 29 207 0.0 0.0 0.00 0.00 0.00 82 1015.3
20260903224824 29 207 0.0 0.0 0.00 0.00 0.00 80 1015.3
20260903224319 30 207 0.0 0.0 0.00 0.00 0.00 80 1015.3
20260903223815 30 207 0.0 0.0 0.00 0.00 0.00 78 1015.3
20260903223314 30 207 0.0 0.0 0.00 0.00 0.00 78 1015.2
20260903222809 30 207 0.0 0.0 0.00 0.00 0.00 78 1015.2
20260903222308 30 207 0.0 0.0 0.00 0.00 0.00 74 1015.3
20260903221803 30 207 0.0 0.0 0.00 0.00 0.00 74 1015.3
20260903221301 30 207 0.0 0.0 0.00 0.00 0.00 74 1015.3
20260903220800 31 208 0.0 1.6 0.00 0.00 0.00 74 1015.0
20260903220255 31 211 0.0 1.6 0.00 0.00 0.00 69 1015.0
20260903215753 31 211 0.0 0.0 0.00 0.00 0.00 68 1014.9
20260903215249 31 211 0.0 1.6 0.00 0.00 0.00 69 1014.5
20260903214741 33 195 0.0 1.6 0.00 0.00 0.00 61 1014.7
20260903214238 33 213 0.0 1.6 0.00 0.00 0.00 65 1014.3
20260903213732 33 212 1.6 1.6 0.00 0.00 0.00 62 1014.5
20260903213228 33 207 1.6 1.6 0.00 0.00 0.00 62 1014.7
20260903212723 33 207 0.0 0.0 0.00 0.00 0.00 63 1014.5
20260903212220 35 214 0.0 1.6 0.00 0.00 0.00 59 1014.5
20260903211719 35 212 0.0 0.0 0.00 0.00 0.00 58 1014.4
20260903211215 35 211 1.6 1.6 0.00 0.00 0.00 59 1014.4
20260903210712 34 209 0.0 0.0 0.00 0.00 0.00 58 1014.5
20260903210207 34 220 1.6 3.2 0.00 0.00 0.00 60 1014.3
20260903205706 34 207 1.6 3.2 0.00 0.00 0.00 58 1014.4
20260903205205 33 225 0.0 1.6 0.00 0.00 0.00 60 1014.9
20260903204701 34 200 0.0 1.6 0.00 0.00 0.00 57 1015.0
20260903204157 33 131 1.6 3.2 0.00 0.00 0.00 58 1015.0
20260903203653 35 219 1.6 1.6 0.00 0.00 0.00 59 1015.0
20260903203148 35 228 1.6 3.2 0.00 0.00 0.00 60 1015.3
20260903202642 35 187 3.2 3.2 0.00 0.00 0.00 52 1015.3
20260903202138 35 199 0.0 1.6 0.00 0.00 0.00 53 1015.2
20260903201638 35 199 3.2 3.2 0.00 0.00 0.00 62 1015.5
20260903201137 35 204 0.0 1.6 0.00 0.00 0.00 55 1015.5
20260903200632 35 8 3.2 4.8 0.00 0.00 0.00 53 1015.6
20260903200128 35 193 3.2 3.2 0.00 0.00 0.00 52 1015.6
20260903195624 35 177 1.6 3.2 0.00 0.00 0.00 52 1015.6
20260903195119 35 73 1.6 3.2 0.00 0.00 0.00 54 1015.6
20260903194614 35 214 1.6 1.6 0.00 0.00 0.00 52 1015.8
20260903194114 35 314 4.8 4.8 0.00 0.00 0.00 52 1015.7
20260903193610 36 221 1.6 1.6 0.00 0.00 0.00 49 1015.7
20260903193106 35 204 0.0 1.6 0.00 0.00 0.00 54 1015.9
20260903192603 35 185 1.6 1.6 0.00 0.00 0.00 55 1015.8
20260903192103 35 186 1.6 1.6 0.00 0.00 0.00 53 1016.2
20260903191559 35 204 0.0 0.0 0.00 0.00 0.00 55 1016.1
20260903191054 34 202 0.0 0.0 0.00 0.00 0.00 61 1016.2
20260903190553 34 186 0.0 1.6 0.00 0.00 0.00 57 1016.5
20260903190053 34 276 4.8 4.8 0.00 0.00 0.00 59 1016.4
20260903185548 34 212 0.0 1.6 0.00 0.00 0.00 56 1016.5
20260903185044 33 212 0.0 0.0 0.00 0.00 0.00 59 1016.7
20260903184540 35 25 4.8 4.8 0.00 0.00 0.00 53 1016.5
20260903184035 35 178 1.6 1.6 0.00 0.00 0.00 54 1016.4
20260903183534 35 209 0.0 1.6 0.00 0.00 0.00 55 1016.5
20260903183029 35 49 1.6 3.2 0.00 0.00 0.00 56 1016.6
20260903182527 33 188 0.0 0.0 0.00 0.00 0.00 55 1016.7
20260903182024 33 216 0.0 0.0 0.00 0.00 0.00 56 1016.8
20260903181517 34 212 1.6 1.6 0.00 0.00 0.00 62 1016.8
20260903181017 35 172 1.6 1.6 0.00 0.00 0.00 56 1016.7
20260903180513 35 186 3.2 4.8 0.00 0.00 0.00 57 1016.8
20260903180012 35 189 4.8 4.8 0.00 0.00 0.00 52 1016.9
20260903175511 35 211 0.0 1.6 0.00 0.00 0.00 52 1016.9
20260903175010 35 210 0.0 1.6 0.00 0.00 0.00 53 1017.0
20260903174505 35 13 4.8 4.8 0.00 0.00 0.00 53 1017.0
20260903174000 35 202 1.6 1.6 0.00 0.00 0.00 53 1017.2
20260903173455 35 271 1.6 3.2 0.00 0.00 0.00 57 1017.2
20260903172951 35 300 3.2 3.2 0.00 0.00 0.00 53 1017.2
20260903172446 34 208 1.6 1.6 0.00 0.00 0.00 58 1017.1
20260903171941 35 226 4.8 4.8 0.00 0.00 0.00 54 1017.2
20260903171436 34 208 3.2 3.2 0.00 0.00 0.00 55 1017.2
20260903170936 34 192 1.6 1.6 0.00 0.00 0.00 55 1017.2
20260903170431 34 216 6.4 6.4 0.00 0.00 0.00 53 1017.4
20260903165930 34 195 1.6 1.6 0.00 0.00 0.00 56 1017.3
20260903165424 34 192 0.0 0.0 0.00 0.00 0.00 59 1017.2
20260903164924 34 61 3.2 3.2 0.00 0.00 0.00 55 1017.3
20260903164419 33 139 1.6 1.6 0.00 0.00 0.00 56 1017.5
20260903163919 33 168 1.6 1.6 0.00 0.00 0.00 57 1017.5
20260903163416 33 28 0.0 3.2 0.00 0.00 0.00 58 1017.6
20260903162912 33 221 3.2 4.8 0.00 0.00 0.00 59 1017.6
20260903162408 33 193 0.0 1.6 0.00 0.00 0.00 60 1017.4
20260903161903 33 233 3.2 3.2 0.00 0.00 0.00 58 1017.5
20260903161358 32 125 4.8 6.4 0.00 0.00 0.00 61 1017.5
20260903160854 33 127 3.2 4.8 0.00 0.00 0.00 62 1017.6
20260903160352 33 207 0.0 1.6 0.00 0.00 0.00 59 1017.6
20260903155851 33 225 0.0 0.0 0.00 0.00 0.00 60 1017.5
20260903155347 33 222 1.6 1.6 0.00 0.00 0.00 65 1017.8
20260903154842 33 200 0.0 0.0 0.00 0.00 0.00 61 1017.6
20260903154338 33 183 1.6 1.6 0.00 0.00 0.00 62 1017.9
20260903153833 32 44 4.8 4.8 0.00 0.00 0.00 62 1017.8
20260903153329 32 46 4.8 4.8 0.00 0.00 0.00 64 1017.8
20260903152825 32 150 0.0 0.0 0.00 0.00 0.00 66 1017.8
20260903152321 32 58 4.8 4.8 0.00 0.00 0.00 63 1017.8
20260903151815 32 193 1.6 1.6 0.00 0.00 0.00 65 1018.0
20260903151311 32 159 0.0 1.6 0.00 0.00 0.00 65 1017.9
20260903150806 32 260 1.6 3.2 0.00 0.00 0.00 63 1017.9
20260903150305 31 195 0.0 0.0 0.00 0.00 0.00 66 1018.1
20260903145800 31 45 6.4 11.3 0.00 0.00 0.00 64 1017.8
20260903145256 32 223 1.6 1.6 0.00 0.00 0.00 67 1017.9
20260903144754 32 206 3.2 3.2 0.00 0.00 0.00 65 1017.8
20260903144250 32 186 1.6 1.6 0.00 0.00 0.00 66 1018.0
20260903143746 31 197 0.0 0.0 0.00 0.00 0.00 67 1018.0
20260903143242 31 177 0.0 0.0 0.00 0.00 0.00 70 1017.8
20260903142737 31 206 1.6 1.6 0.00 0.00 0.00 68 1018.0
20260903142234 30 147 1.6 1.6 0.00 0.00 0.00 70 1018.0
20260903141729 30 353 3.2 4.8 0.00 0.00 0.00 73 1018.0
20260903141225 30 130 3.2 3.2 0.00 0.00 0.00 73 1018.0
20260903140720 30 201 1.6 1.6 0.00 0.00 0.00 73 1017.8
20260903140215 30 202 3.2 3.2 0.00 0.00 0.00 73 1017.9
20260903135710 29 198 1.6 1.6 0.00 0.00 0.00 74 1018.1
20260903135206 28 198 0.0 0.0 0.00 0.00 0.00 78 1017.8
20260903134704 28 204 0.0 0.0 0.00 0.00 0.00 76 1018.0
20260903134201 28 172 0.0 0.0 0.00 0.00 0.00 80 1018.2
20260903133659 28 172 0.0 0.0 0.00 0.00 0.00 83 1018.1
20260903133155 27 175 0.0 0.0 0.00 0.00 0.00 85 1018.1
20260903132654 27 175 0.0 0.0 0.00 0.00 0.00 88 1018.2
20260903132154 26 186 1.6 1.6 0.00 0.00 0.00 88 1018.2
20260903131649 25 186 1.6 1.6 0.00 0.00 0.00 92 1018.3
20260903131149 25 186 1.6 1.6 0.00 0.00 0.00 93 1018.2
20260903130644 24 190 0.0 0.0 0.00 0.00 0.00 96 1018.3
20260903130144 24 194 0.0 0.0 0.00 0.00 0.00 99 1018.4
20260903125642 23 197 0.0 0.0 0.00 0.00 0.00 99 1018.5
20260903125137 23 199 0.0 0.0 0.00 0.00 0.00 99 1018.3
20260903124637 23 201 0.0 0.0 0.00 0.00 0.00 99 1018.4
20260903124131 23 201 0.0 0.0 0.00 0.00 0.00 99 1018.3
20260903123631 23 201 0.0 0.0 0.00 0.00 0.00 99 1018.2
20260903123130 22 201 0.0 0.0 0.00 0.00 0.00 99 1018.5
20260903122630 22 201 0.0 0.0 0.00 0.00 0.00 99 1018.5
20260903122124 21 201 0.0 0.0 0.00 0.00 0.00 99 1018.4
20260903121623 21 201 0.0 0.0 0.00 0.00 0.00 99 1018.4
20260903121119 21 201 0.0 0.0 0.00 0.00 0.00 99 1018.4
20260903120618 21 201 0.0 0.0 0.00 0.00 0.00 99 1018.4
20260903120113 21 201 0.0 0.0 0.00 0.00 0.00 99 1018.5
20260903115611 21 201 0.0 0.0 0.00 0.00 0.00 99 1018.4
20260903115106 21 201 0.0 0.0 0.00 0.00 0.00 99 1018.3
20260903114601 21 201 0.0 0.0 0.00 0.00 0.00 99 1018.4
20260903114057 20 201 0.0 0.0 0.00 0.00 0.00 99 1018.3
20260903113553 20 201 0.0 0.0 0.00 0.00 0.00 99 1018.4
20260903113049 20 201 0.0 0.0 0.00 0.00 0.00 99 1018.5
20260903112544 20 201 0.0 0.0 0.00 0.00 0.00 99 1018.0
20260903112044 20 201 0.0 0.0 0.00 0.00 0.00 99 1018.1
20260903111543 20 201 0.0 0.0 0.00 0.00 0.00 99 1018.1
20260903111039 20 201 0.0 0.0 0.00 0.00 0.00 99 1018.2
20260903110535 20 201 0.0 0.0 0.00 0.00 0.00 99 1018.1
20260903110030 20 201 0.0 0.0 0.00 0.00 0.00 99 1017.8
20260903105525 20 201 0.0 0.0 0.00 0.00 0.00 99 1017.8
20260903105020 20 201 0.0 0.0 0.00 0.00 0.00 99 1017.8
20260903104519 20 201 0.0 0.0 0.00 0.00 0.00 99 1017.8
20260903104015 20 201 0.0 0.0 0.00 0.00 0.00 99 1017.7
20260903103511 20 201 0.0 0.0 0.00 0.00 0.00 99 1017.7
20260903103007 20 201 0.0 0.0 0.00 0.00 0.00 99 1017.6
20260903102502 20 201 0.0 0.0 0.00 0.00 0.00 99 1017.8
20260903102001 20 201 0.0 0.0 0.00 0.00 0.00 99 1017.6
20260903101455 21 201 0.0 0.0 0.00 0.00 0.00 99 1017.7
20260903100951 20 201 0.0 0.0 0.00 0.00 0.00 99 1017.5
20260903100446 20 201 0.0 0.0 0.00 0.00 0.00 99 1017.4
20260903095943 20 201 0.0 0.0 0.00 0.00 0.00 99 1017.3
20260903095438 21 201 0.0 0.0 0.00 0.00 0.00 99 1017.2
20260903094933 20 201 0.0 0.0 0.00 0.00 0.00 99 1017.3
20260903094427 21 201 0.0 0.0 0.00 0.00 0.00 99 1017.2
20260903093924 21 201 0.0 0.0 0.00 0.00 0.00 99 1017.1
20260903093423 21 201 0.0 0.0 0.00 0.00 0.00 99 1017.2
20260903092919 21 201 0.0 0.0 0.00 0.00 0.00 99 1017.2
20260903092414 21 201 0.0 0.0 0.00 0.00 0.00 99 1017.3
20260903091912 21 201 0.0 0.0 0.00 0.00 0.00 99 1017.3
20260903091406 21 201 0.0 0.0 0.00 0.00 0.00 99 1017.4
20260903090901 21 201 0.0 0.0 0.00 0.00 0.00 99 1017.4
20260903090356 21 201 0.0 0.0 0.00 0.00 0.00 99 1017.2
20260903085854 21 201 0.0 0.0 0.00 0.00 0.00 99 1017.3
20260903085353 21 201 0.0 0.0 0.00 0.00 0.00 99 1017.1
20260903084853 21 201 0.0 0.0 0.00 0.00 0.00 99 1017.4
20260903084352 21 201 0.0 0.0 0.00 0.00 0.00 99 1017.3
20260903083847 21 201 0.0 0.0 0.00 0.00 0.00 99 1017.3
20260903083343 21 201 0.0 0.0 0.00 0.00 0.00 99 1017.3
20260903082842 21 201 0.0 0.0 0.00 0.00 0.00 99 1017.4
20260903082337 21 201 0.0 0.0 0.00 0.00 0.00 99 1017.2
20260903081832 21 201 0.0 0.0 0.00 0.00 0.00 99 1017.2
20260903081327 21 201 0.0 0.0 0.00 0.00 0.00 99 1017.4
20260903080824 21 201 0.0 0.0 0.00 0.00 0.00 99 1017.5
20260903080321 21 201 0.0 0.0 0.00 0.00 0.00 99 1017.3
20260903075820 21 201 0.0 0.0 0.00 0.00 0.00 99 1017.3
20260903075315 21 201 0.0 0.0 0.00 0.00 0.00 99 1017.3
20260903074815 21 201 0.0 0.0 0.00 0.00 0.00 99 1017.2
20260903074310 21 201 0.0 0.0 0.00 0.00 0.00 99 1017.2
20260903073805 21 201 0.0 0.0 0.00 0.00 0.00 99 1017.3
20260903073306 21 201 0.0 0.0 0.00 0.00 0.00 99 1017.4
20260903072801 21 201 0.0 0.0 0.00 0.00 0.00 99 1017.4
20260903072258 21 201 0.0 0.0 0.00 0.00 0.00 99 1017.3
20260903071755 21 201 0.0 0.0 0.00 0.00 0.00 99 1017.3
20260903071250 21 201 0.0 0.0 0.00 0.00 0.00 99 1017.4
20260903070749 21 201 0.0 0.0 0.00 0.00 0.00 99 1017.4
20260903070245 21 201 0.0 0.0 0.00 0.00 0.00 99 1017.4
20260903065740 21 201 0.0 0.0 0.00 0.00 0.00 99 1017.2
20260903065240 21 201 0.0 0.0 0.00 0.00 0.00 99 1017.4
20260903064738 21 201 0.0 0.0 0.00 0.00 0.00 99 1017.4
20260903064234 21 201 0.0 0.0 0.00 0.00 0.00 99 1017.4
20260903063730 21 201 0.0 0.0 0.00 0.00 0.00 99 1017.4
20260903063225 21 201 0.0 0.0 0.00 0.00 0.00 99 1017.4
20260903062721 21 201 0.0 0.0 0.00 0.00 0.00 99 1017.4
20260903062220 22 201 0.0 0.0 0.00 0.00 0.00 99 1017.6
20260903061717 22 201 0.0 0.0 0.00 0.00 0.00 99 1017.5
20260903061216 22 201 0.0 0.0 0.00 0.00 0.00 99 1017.4
20260903060712 21 201 0.0 0.0 0.00 0.00 0.00 99 1017.4
20260903060211 21 201 0.0 0.0 0.00 0.00 0.00 99 1017.4
20260903055709 22 201 0.0 0.0 0.00 0.00 0.00 99 1017.3
20260903055207 22 201 0.0 0.0 0.00 0.00 0.00 99 1017.5
20260903054702 22 201 0.0 0.0 0.00 0.00 0.00 99 1017.5
20260903054158 22 201 0.0 0.0 0.00 0.00 0.00 99 1017.3
20260903053654 22 201 0.0 0.0 0.00 0.00 0.00 99 1017.2
20260903053149 22 201 0.0 0.0 0.00 0.00 0.00 99 1017.4
20260903052645 22 201 0.0 0.0 0.00 0.00 0.00 99 1017.3
20260903052141 22 201 0.0 0.0 0.00 0.00 0.00 99 1017.3
20260903051635 22 201 0.0 0.0 0.00 0.00 0.00 99 1017.2
20260903051131 22 201 0.0 0.0 0.00 0.00 0.00 99 1017.2
20260903050625 22 201 0.0 0.0 0.00 0.00 0.00 99 1017.0
20260903050121 22 201 0.0 0.0 0.00 0.00 0.00 99 1016.8
20260903045620 22 201 0.0 0.0 0.00 0.00 0.00 99 1016.9
20260903045117 22 201 0.0 0.0 0.00 0.00 0.00 99 1016.7
20260903044612 22 201 0.0 0.0 0.00 0.00 0.00 99 1016.8
20260903044108 22 201 0.0 0.0 0.00 0.00 0.00 99 1016.8
20260903043603 22 201 0.0 0.0 0.00 0.00 0.00 99 1016.8
20260903043102 22 201 0.0 0.0 0.00 0.00 0.00 99 1016.7
20260903042558 22 201 0.0 0.0 0.00 0.00 0.00 99 1016.8
20260903042053 22 201 0.0 0.0 0.00 0.00 0.00 99 1016.8
20260903041549 22 201 0.0 0.0 0.00 0.00 0.00 99 1016.8
20260903041045 22 201 0.0 0.0 0.00 0.00 0.00 99 1016.7
20260903040543 22 201 0.0 0.0 0.00 0.00 0.00 99 1016.9
20260903040040 22 201 0.0 0.0 0.00 0.00 0.00 99 1016.8
20260903035540 22 201 0.0 0.0 0.00 0.00 0.00 99 1016.9
20260903035036 22 201 0.0 0.0 0.00 0.00 0.00 99 1017.1
20260903034532 22 201 0.0 0.0 0.00 0.00 0.00 99 1017.0
20260903034026 22 201 0.0 0.0 0.00 0.00 0.00 99 1017.0
20260903033521 22 201 0.0 0.0 0.00 0.00 0.00 99 1017.0
20260903033017 22 201 0.0 0.0 0.00 0.00 0.00 99 1017.0
20260903032512 22 201 0.0 0.0 0.00 0.00 0.00 99 1016.9
20260903032007 23 201 0.0 0.0 0.00 0.00 0.00 99 1016.9
20260903031506 23 201 0.0 0.0 0.00 0.00 0.00 99 1017.1
20260903031001 23 201 0.0 0.0 0.00 0.00 0.00 99 1017.1